,,Stat5,,Stat1,,Stat2,,Stat3,,Stat4,,Wind1,,Wind1,
time,status,PA1M_AVG,status,PR1M_SUM,status,RH1M_AVG,status,SR1M_AVG,status,TA1M_AVG,status,W1dAve1m,status,W1sAve1m,
2000-09-01, 00:00:01,VALID,918.57,VALID,0,VALID,99.5043,VALID,0,VALID,18.2833,VALID,208,VALID,1.28145,
2000-09-01, 00:01:00,VALID,918.578,VALID,0,VALID,99.5209,VALID,-0.0169808,VALID,18.2826,VALID,204,VALID,0.866571,
2000-09-01, 00:02:00,VALID,918.584,VALID,0,VALID,99.5183,VALID,0,VALID,18.2893,VALID,217,VALID,1.13281,
2000-09-01, 00:03:01,VALID,918.591,VALID,0,VALID,99.5412,VALID,0,VALID,18.2955,VALID,220,VALID,1.13569,
2000-09-01, 00:04:00,VALID,918.609,VALID,0,VALID,99.5488,VALID,0,VALID,18.3017,VALID,208,VALID,0.873264,
2000-09-01, 00:05:01,VALID,918.61,VALID,0,VALID,99.545,VALID,0,VALID,18.3017,VALID,209,VALID,0.957648,
2000-09-01, 00:06:01,VALID,918.604,VALID,0,VALID,99.573,VALID,0.0169808,VALID,18.3087,VALID,209,VALID,1.12812,
2000-09-01, 00:07:01,VALID,918.592,VALID,0,VALID,99.6073,VALID,0,VALID,18.3447,VALID,211,VALID,1.04043,
2000-09-01, 00:08:00,VALID,918.599,VALID,0,VALID,99.6188,VALID,0.0169808,VALID,18.3377,VALID,215,VALID,1.01522,
2000-09-01, 00:09:01,VALID,918.581,VALID,0,VALID,99.6328,VALID,0,VALID,18.347,VALID,215,VALID,1.13594,
2000-09-01, 00:10:01,VALID,918.568,VALID,0,VALID,99.634,VALID,0,VALID,18.3566,VALID,226,VALID,0.626758,
2000-09-01, 00:11:00,VALID,918.568,VALID,0,VALID,99.6366,VALID,0.0169808,VALID,18.3666,VALID,207,VALID,0.898649,
2000-09-01, 00:12:01,VALID,918.553,VALID,0,VALID,99.6366,VALID,0,VALID,18.3673,VALID,209,VALID,1.15203,
2000-09-01, 00:13:01,VALID,918.553,VALID,0,VALID,99.6175,VALID,0,VALID,18.3606,VALID,201,VALID,1.02656,
2000-09-01, 00:14:01,VALID,918.541,VALID,0,VALID,99.6429,VALID,-0.0509425,VALID,18.3177,VALID,201,VALID,0.900391,
2000-09-01, 00:15:01,VALID,918.537,VALID,0,VALID,99.6468,VALID,-0.101885,VALID,18.3278,VALID,181,VALID,0.877003,
2000-09-01, 00:16:01,VALID,918.544,VALID,0,VALID,99.6328,VALID,-0.0679233,VALID,18.3054,VALID,179,VALID,0.653212,
2000-09-01, 00:17:01,VALID,918.543,VALID,0,VALID,99.62,VALID,-0.0169808,VALID,18.2861,VALID,180,VALID,0.595312,
2000-09-01, 00:18:01,VALID,918.544,VALID,0,VALID,99.6239,VALID,-0.101885,VALID,18.2605,VALID,177,VALID,0.654018,
2000-09-01, 00:19:01,VALID,918.544,VALID,0,VALID,99.6188,VALID,-0.0849042,VALID,18.2342,VALID,195,VALID,0.447635,
2000-09-01, 00:20:01,VALID,918.544,VALID,0,VALID,99.6048,VALID,-0.0679233,VALID,18.2053,VALID,186,VALID,0.00820312,
2000-09-01, 00:21:01,VALID,918.539,VALID,0,VALID,99.6747,VALID,-0.0849042,VALID,18.1986,VALID,188,VALID,0,
2000-09-01, 00:22:01,VALID,918.545,VALID,0,VALID,99.704,VALID,-0.0679233,VALID,18.215,VALID,190,VALID,0.117588,
2000-09-01, 00:23:01,VALID,918.534,VALID,0,VALID,99.7052,VALID,-0.0169808,VALID,18.2344,VALID,207,VALID,0.642693,
2000-09-01, 00:24:01,VALID,918.523,VALID,0,VALID,99.7192,VALID,-0.0509425,VALID,18.2212,VALID,210,VALID,0.714063,
2000-09-01, 00:25:01,VALID,918.509,VALID,0,VALID,99.7281,VALID,-0.0509425,VALID,18.2381,VALID,198,VALID,0.678085,
2000-09-01, 00:26:01,VALID,918.5,VALID,0,VALID,99.7307,VALID,-0.0509425,VALID,18.2505,VALID,219,VALID,1.18982,
2000-09-01, 00:27:01,VALID,918.49,VALID,0,VALID,99.7485,VALID,-0.0849042,VALID,18.2501,VALID,215,VALID,1.20374,
2000-09-01, 00:28:01,VALID,918.481,VALID,0,VALID,99.7587,VALID,-0.0679233,VALID,18.2764,VALID,212,VALID,1.22902,
2000-09-01, 00:29:01,VALID,918.463,VALID,0,VALID,99.7625,VALID,-0.0169808,VALID,18.2791,VALID,220,VALID,1.29708,
2000-09-01, 00:30:01,VALID,918.451,VALID,0,VALID,99.7523,VALID,-0.0509425,VALID,18.2766,VALID,208,VALID,1.33759,
2000-09-01, 00:31:00,VALID,918.42,VALID,0,VALID,99.7472,VALID,-0.0509425,VALID,18.2565,VALID,202,VALID,0.829644,
2000-09-01, 00:32:00,VALID,918.413,VALID,0,VALID,99.7612,VALID,-0.0509425,VALID,18.2466,VALID,212,VALID,0.766859,
2000-09-01, 00:33:00,VALID,918.397,VALID,0,VALID,99.7701,VALID,-0.0339617,VALID,18.2565,VALID,181,VALID,0.520032,
2000-09-01, 00:34:00,VALID,918.406,VALID,0,VALID,99.7714,VALID,-0.0679233,VALID,18.2471,VALID,193,VALID,0.606641,
2000-09-01, 00:35:00,VALID,918.406,VALID,0,VALID,99.7625,VALID,-0.0509425,VALID,18.2309,VALID,182,VALID,0.589509,
2000-09-01, 00:36:00,VALID,918.423,VALID,0,VALID,99.7752,VALID,-0.0679233,VALID,18.2275,VALID,209,VALID,0.152238,
2000-09-01, 00:37:00,VALID,918.428,VALID,0,VALID,99.7765,VALID,-0.0679233,VALID,18.2372,VALID,180,VALID,0.297794,
2000-09-01, 00:38:00,VALID,918.418,VALID,0,VALID,99.7663,VALID,-0.0339617,VALID,18.2309,VALID,153,VALID,0.763839,
2000-09-01, 00:39:00,VALID,918.408,VALID,0,VALID,99.765,VALID,-0.0509425,VALID,18.2115,VALID,150,VALID,0.697115,
2000-09-01, 00:40:00,VALID,918.387,VALID,0,VALID,99.7612,VALID,-0.0679233,VALID,18.1889,VALID,147,VALID,0.550676,
2000-09-01, 00:41:00,VALID,918.385,VALID,0,VALID,99.7434,VALID,-0.0339617,VALID,18.1797,VALID,154,VALID,0.5625,
2000-09-01, 00:42:00,VALID,918.351,VALID,0,VALID,99.7447,VALID,-0.0509425,VALID,18.1506,VALID,170,VALID,0.619866,
2000-09-01, 00:43:00,VALID,918.323,VALID,0,VALID,99.7688,VALID,-0.0849042,VALID,18.1179,VALID,161,VALID,0.633213,
2000-09-01, 00:44:00,VALID,918.288,VALID,0,VALID,99.7701,VALID,0.0509425,VALID,18.1202,VALID,176,VALID,0.524148,
2000-09-01, 00:45:00,VALID,918.265,VALID,0,VALID,99.7701,VALID,0.0679233,VALID,18.1008,VALID,192,VALID,0.994358,
2000-09-01, 00:46:00,VALID,918.24,VALID,0,VALID,99.8019,VALID,0.0509425,VALID,18.1098,VALID,194,VALID,0.956209,
2000-09-01, 00:47:00,VALID,918.224,VALID,0,VALID,99.8121,VALID,0,VALID,18.1168,VALID,195,VALID,0.795473,
2000-09-01, 00:48:00,VALID,918.204,VALID,0,VALID,99.8248,VALID,0.0169808,VALID,18.12,VALID,212,VALID,0.45,
2000-09-01, 00:49:00,VALID,918.181,VALID,0,VALID,99.8311,VALID,0.0339617,VALID,18.123,VALID,195,VALID,1.0308,
2000-09-01, 00:50:00,VALID,918.157,VALID,0,VALID,99.8286,VALID,0.0169808,VALID,18.1297,VALID,177,VALID,1.15625,
2000-09-01, 00:51:00,VALID,918.132,VALID,0,VALID,99.821,VALID,0.0169808,VALID,18.1031,VALID,193,VALID,1.3881,
2000-09-01, 00:52:00,VALID,918.124,VALID,0,VALID,99.84,VALID,0.0169808,VALID,18.1038,VALID,192,VALID,1.13504,
2000-09-01, 00:53:00,VALID,918.104,VALID,0,VALID,99.8477,VALID,0.0509425,VALID,18.0999,VALID,192,VALID,0.836739,
2000-09-01, 00:54:00,VALID,918.087,VALID,0,VALID,99.8489,VALID,0.0339617,VALID,18.1103,VALID,193,VALID,0.976985,
2000-09-01, 00:55:00,VALID,918.09,VALID,0,VALID,99.8337,VALID,0.0509425,VALID,18.0872,VALID,185,VALID,1.29009,
2000-09-01, 00:56:00,VALID,918.086,VALID,0,VALID,99.854,VALID,0.0339617,VALID,18.081,VALID,186,VALID,0.721429,
2000-09-01, 00:57:00,VALID,918.088,VALID,0,VALID,99.8706,VALID,0.0509425,VALID,18.0909,VALID,197,VALID,0.748197,
2000-09-01, 00:58:00,VALID,918.082,VALID,0,VALID,99.8769,VALID,0.0679233,VALID,18.0909,VALID,205,VALID,0.730824,
2000-09-01, 00:59:00,VALID,918.085,VALID,0,VALID,99.8973,VALID,0.0509425,VALID,18.1036,VALID,197,VALID,0.453342,
2000-09-01, 01:00:00,VALID,918.061,VALID,0,VALID,99.8871,VALID,0.0339617,VALID,18.1071,VALID,195,VALID,0.585732,
2000-09-01, 01:01:00,VALID,918.035,VALID,0,VALID,99.8909,VALID,0.0169808,VALID,18.1137,VALID,162,VALID,0.55609,
2000-09-01, 01:02:00,VALID,917.991,VALID,0,VALID,99.8871,VALID,0,VALID,18.1073,VALID,172,VALID,0.853125,
2000-09-01, 01:03:00,VALID,917.961,VALID,0,VALID,99.8896,VALID,0.0339617,VALID,18.1011,VALID,185,VALID,0.452679,
2000-09-01, 01:04:00,VALID,917.946,VALID,0,VALID,99.8807,VALID,0.0679233,VALID,18.0976,VALID,181,VALID,1.14253,
2000-09-01, 01:05:00,VALID,917.935,VALID,0,VALID,99.8807,VALID,0.0509425,VALID,18.0748,VALID,193,VALID,0.826057,
2000-09-01, 01:06:00,VALID,917.941,VALID,0,VALID,99.8909,VALID,0.0509425,VALID,18.0649,VALID,183,VALID,0.68683,
2000-09-01, 01:07:00,VALID,917.93,VALID,0,VALID,99.8998,VALID,0.0169808,VALID,18.0711,VALID,204,VALID,0.549679,
2000-09-01, 01:08:00,VALID,917.931,VALID,0,VALID,99.9214,VALID,0.0849042,VALID,18.0877,VALID,199,VALID,0.704603,
2000-09-01, 01:09:00,VALID,917.92,VALID,0,VALID,99.9138,VALID,0.0509425,VALID,18.0875,VALID,184,VALID,0.811061,
2000-09-01, 01:10:00,VALID,917.922,VALID,0,VALID,99.9151,VALID,0.0339617,VALID,18.0745,VALID,187,VALID,0.637054,
2000-09-01, 01:11:00,VALID,917.924,VALID,0,VALID,99.929,VALID,0.0169808,VALID,18.0709,VALID,188,VALID,0.898638,
2000-09-01, 01:12:00,VALID,917.942,VALID,0,VALID,99.9163,VALID,0,VALID,18.0782,VALID,232,VALID,1.50545,
2000-09-01, 01:13:00,VALID,917.957,VALID,0,VALID,99.9189,VALID,0.0679233,VALID,18.0752,VALID,215,VALID,0.868707,
2000-09-01, 01:14:00,VALID,917.961,VALID,0,VALID,99.9138,VALID,0,VALID,18.0492,VALID,217,VALID,1.4118,
2000-09-01, 01:15:00,VALID,917.926,VALID,0,VALID,99.91,VALID,0,VALID,18.057,VALID,208,VALID,1.38301,
2000-09-01, 01:16:00,VALID,917.892,VALID,0,VALID,99.9125,VALID,-0.0169808,VALID,18.021,VALID,225,VALID,1.24883,
2000-09-01, 01:17:00,VALID,917.847,VALID,0,VALID,99.9125,VALID,-0.0339617,VALID,18.018,VALID,212,VALID,1.43214,
2000-09-01, 01:18:00,VALID,917.816,VALID,0,VALID,99.9252,VALID,0,VALID,18.0046,VALID,216,VALID,0.933488,
2000-09-01, 01:19:00,VALID,917.771,VALID,0,VALID,99.9329,VALID,-0.0339617,VALID,18.0115,VALID,226,VALID,0.961397,
2000-09-01, 01:20:00,VALID,917.742,VALID,0,VALID,99.9138,VALID,-0.0339617,VALID,17.9956,VALID,223,VALID,1.01049,
2000-09-01, 01:21:00,VALID,917.737,VALID,0,VALID,99.9087,VALID,-0.0339617,VALID,17.9859,VALID,219,VALID,1.52103,
2000-09-01, 01:22:00,VALID,917.728,VALID,0,VALID,99.9227,VALID,-0.0339617,VALID,17.95,VALID,194,VALID,1.03421,
2000-09-01, 01:23:00,VALID,917.738,VALID,0,VALID,99.9341,VALID,-0.0509425,VALID,17.9633,VALID,209,VALID,0.668586,
2000-09-01, 01:24:00,VALID,917.741,VALID,0,VALID,99.9379,VALID,-0.0169808,VALID,17.9633,VALID,204,VALID,0.975446,
2000-09-01, 01:25:00,VALID,917.74,VALID,0,VALID,99.9341,VALID,-0.0509425,VALID,17.9504,VALID,196,VALID,0.680889,
2000-09-01, 01:26:00,VALID,917.746,VALID,0,VALID,99.9354,VALID,-0.0339617,VALID,17.9407,VALID,218,VALID,1.12784,
2000-09-01, 01:27:00,VALID,917.747,VALID,0,VALID,99.9379,VALID,-0.0679233,VALID,17.9213,VALID,221,VALID,1.2053,
2000-09-01, 01:28:00,VALID,917.727,VALID,0,VALID,99.9405,VALID,-0.0509425,VALID,17.9121,VALID,209,VALID,0.905222,
2000-09-01, 01:29:00,VALID,917.728,VALID,0,VALID,99.9405,VALID,0.0509425,VALID,17.9041,VALID,184,VALID,1.10016,
2000-09-01, 01:30:00,VALID,917.721,VALID,0,VALID,99.9519,VALID,0.0679233,VALID,17.9006,VALID,197,VALID,0.998438,
2000-09-01, 01:31:00,VALID,917.704,VALID,0,VALID,99.9723,VALID,0.0679233,VALID,17.9006,VALID,200,VALID,0.69308,
2000-09-01, 01:32:00,VALID,917.702,VALID,0,VALID,99.9697,VALID,0.101885,VALID,17.9034,VALID,175,VALID,0.722128,
2000-09-01, 01:33:00,VALID,917.69,VALID,0,VALID,99.9596,VALID,0.101885,VALID,17.887,VALID,186,VALID,0.821921,
2000-09-01, 01:34:00,VALID,917.682,VALID,0,VALID,99.9608,VALID,0.101885,VALID,17.8808,VALID,194,VALID,0.409152,
2000-09-01, 01:35:00,VALID,917.657,VALID,0,VALID,99.9812,VALID,0.0679233,VALID,17.8711,VALID,231,VALID,0.58153,
2000-09-01, 01:36:00,VALID,917.644,VALID,0,VALID,99.9761,VALID,0.0679233,VALID,17.8882,VALID,198,VALID,0.513725,
2000-09-01, 01:37:00,VALID,917.647,VALID,0,VALID,99.9697,VALID,0.0849042,VALID,17.8517,VALID,162,VALID,0.716077,
2000-09-01, 01:38:00,VALID,917.621,VALID,0,VALID,99.9697,VALID,0.0679233,VALID,17.852,VALID,174,VALID,1.05759,
2000-09-01, 01:39:00,VALID,917.622,VALID,0,VALID,99.9621,VALID,0.101885,VALID,17.8259,VALID,190,VALID,1.11979,
2000-09-01, 01:40:00,VALID,917.621,VALID,0,VALID,99.9685,VALID,0.0679233,VALID,17.8033,VALID,178,VALID,0.664063,
2000-09-01, 01:41:00,VALID,917.607,VALID,0,VALID,99.9748,VALID,0.0679233,VALID,17.8035,VALID,198,VALID,0.509549,
2000-09-01, 01:42:00,VALID,917.59,VALID,0,VALID,99.9825,VALID,0.0679233,VALID,17.8037,VALID,190,VALID,0.848684,
2000-09-01, 01:43:00,VALID,917.568,VALID,0,VALID,99.9799,VALID,0.0509425,VALID,17.7908,VALID,186,VALID,0.792268,
2000-09-01, 01:44:00,VALID,917.548,VALID,0,VALID,99.9883,VALID,0.101885,VALID,17.7839,VALID,191,VALID,0.660742,
2000-09-01, 01:45:00,VALID,917.528,VALID,0,VALID,99.9883,VALID,0.0679233,VALID,17.7811,VALID,195,VALID,0.655134,
2000-09-01, 01:46:00,VALID,917.516,VALID,0,VALID,99.9947,VALID,0.101885,VALID,17.7775,VALID,186,VALID,0.844383,
2000-09-01, 01:47:00,VALID,917.496,VALID,0,VALID,99.9967,VALID,0.0849042,VALID,17.7809,VALID,192,VALID,0.673024,
2000-09-01, 01:48:00,VALID,917.482,VALID,0,VALID,100,VALID,0.101885,VALID,17.7973,VALID,182,VALID,0.65625,
2000-09-01, 01:49:00,VALID,917.49,VALID,0,VALID,100,VALID,0.0509425,VALID,17.7911,VALID,196,VALID,0.995593,
2000-09-01, 01:50:00,VALID,917.498,VALID,0,VALID,99.9954,VALID,0.0509425,VALID,17.7745,VALID,178,VALID,0.97234,
2000-09-01, 01:51:00,VALID,917.498,VALID,0,VALID,99.999,VALID,0.0849042,VALID,17.7648,VALID,197,VALID,0.88384,
2000-09-01, 01:52:00,VALID,917.511,VALID,0,VALID,99.9977,VALID,0.0679233,VALID,17.7615,VALID,173,VALID,0.366741,
2000-09-01, 01:53:00,VALID,917.513,VALID,0,VALID,100,VALID,0.101885,VALID,17.7682,VALID,219,VALID,0.919271,
2000-09-01, 01:54:00,VALID,917.524,VALID,0,VALID,100,VALID,0.0849042,VALID,17.765,VALID,174,VALID,1.13991,
2000-09-01, 01:55:00,VALID,917.524,VALID,0,VALID,100,VALID,0.0679233,VALID,17.7588,VALID,222,VALID,1.32031,
2000-09-01, 01:56:00,VALID,917.51,VALID,0,VALID,100,VALID,0.101885,VALID,17.7588,VALID,225,VALID,1.19408,
2000-09-01, 01:57:00,VALID,917.504,VALID,0,VALID,100,VALID,0.0169808,VALID,17.7523,VALID,208,VALID,1.31571,
2000-09-01, 01:58:00,VALID,917.492,VALID,0,VALID,100,VALID,0.0849042,VALID,17.7456,VALID,228,VALID,1.18066,
2000-09-01, 01:59:00,VALID,917.486,VALID,0,VALID,100,VALID,0.0169808,VALID,17.7433,VALID,224,VALID,1.39219,
2000-09-01, 02:00:00,VALID,917.488,VALID,0,VALID,100,VALID,-0.0169808,VALID,17.7407,VALID,215,VALID,1.10621,
2000-09-01, 02:01:00,VALID,917.474,VALID,0,VALID,100,VALID,-0.0169808,VALID,17.7338,VALID,216,VALID,1.4097,
2000-09-01, 02:02:00,VALID,917.458,VALID,0,VALID,100,VALID,-0.0509425,VALID,17.7181,VALID,215,VALID,1.4596,
2000-09-01, 02:03:00,VALID,917.444,VALID,0,VALID,100,VALID,-0.0339617,VALID,17.7248,VALID,226,VALID,1.83273,
2000-09-01, 02:04:00,VALID,917.422,VALID,0,VALID,100,VALID,-0.0339617,VALID,17.7218,VALID,211,VALID,1.61402,
2000-09-01, 02:05:00,VALID,917.413,VALID,0,VALID,100,VALID,-0.0339617,VALID,17.7087,VALID,223,VALID,1.40111,
2000-09-01, 02:06:00,VALID,917.405,VALID,0,VALID,100,VALID,-0.0339617,VALID,17.7089,VALID,200,VALID,1.16473,
2000-09-01, 02:07:00,VALID,917.414,VALID,0,VALID,100,VALID,-0.0339617,VALID,17.6826,VALID,214,VALID,0.731971,
2000-09-01, 02:08:00,VALID,917.398,VALID,0,VALID,100,VALID,-0.0509425,VALID,17.6761,VALID,217,VALID,1.1643,
2000-09-01, 02:09:00,VALID,917.424,VALID,0,VALID,100,VALID,-0.0509425,VALID,17.6699,VALID,217,VALID,0.787109,
2000-09-01, 02:10:00,VALID,917.423,VALID,0,VALID,100,VALID,-0.0169808,VALID,17.6568,VALID,218,VALID,0.735197,
2000-09-01, 02:11:00,VALID,917.435,VALID,0,VALID,100,VALID,-0.0169808,VALID,17.6406,VALID,190,VALID,0.321715,
2000-09-01, 02:12:00,VALID,917.447,VALID,0,VALID,100,VALID,-0.0339617,VALID,17.6337,VALID,192,VALID,0.0878906,
2000-09-01, 02:13:00,VALID,917.476,VALID,0,VALID,100,VALID,0,VALID,17.6406,VALID,209,VALID,0.264955,
2000-09-01, 02:14:00,VALID,917.488,VALID,0,VALID,100,VALID,0.0169808,VALID,17.6307,VALID,186,VALID,0.313556,
2000-09-01, 02:15:00,VALID,917.499,VALID,0,VALID,100,VALID,0.0169808,VALID,17.627,VALID,173,VALID,0.616958,
2000-09-01, 02:16:00,VALID,917.5,VALID,0,VALID,100,VALID,0,VALID,17.6176,VALID,181,VALID,0.701116,
2000-09-01, 02:17:00,VALID,917.496,VALID,0,VALID,100,VALID,0,VALID,17.6017,VALID,177,VALID,0.680088,
2000-09-01, 02:18:00,VALID,917.479,VALID,0,VALID,100,VALID,0,VALID,17.592,VALID,190,VALID,0.630068,
2000-09-01, 02:19:00,VALID,917.451,VALID,0,VALID,100,VALID,0,VALID,17.5885,VALID,198,VALID,0.561883,
2000-09-01, 02:20:00,VALID,917.456,VALID,0,VALID,100,VALID,-0.0169808,VALID,17.5851,VALID,209,VALID,0.647321,
2000-09-01, 02:21:00,VALID,917.442,VALID,0,VALID,100,VALID,-0.0169808,VALID,17.5758,VALID,226,VALID,0.448918,
2000-09-01, 02:22:00,VALID,917.433,VALID,0,VALID,100,VALID,0,VALID,17.5825,VALID,237,VALID,0,
2000-09-01, 02:23:00,VALID,917.427,VALID,0,VALID,100,VALID,0,VALID,17.5754,VALID,228,VALID,0.451172,
2000-09-01, 02:24:00,VALID,917.435,VALID,0,VALID,100,VALID,0,VALID,17.5691,VALID,225,VALID,0.502056,
2000-09-01, 02:25:00,VALID,917.41,VALID,0,VALID,100,VALID,0.0169808,VALID,17.5631,VALID,192,VALID,0.627604,
2000-09-01, 02:26:00,VALID,917.393,VALID,0,VALID,100,VALID,0.0169808,VALID,17.55,VALID,186,VALID,0.50625,
2000-09-01, 02:27:00,VALID,917.374,VALID,0,VALID,100,VALID,0,VALID,17.5207,VALID,181,VALID,0.48192,
2000-09-01, 02:28:00,VALID,917.341,VALID,0,VALID,100,VALID,0,VALID,17.508,VALID,187,VALID,0.706503,
2000-09-01, 02:29:00,VALID,917.326,VALID,0,VALID,100,VALID,0,VALID,17.4921,VALID,231,VALID,0.513097,
2000-09-01, 02:30:00,VALID,917.303,VALID,0,VALID,100,VALID,0.0169808,VALID,17.4723,VALID,205,VALID,0.612277,
2000-09-01, 02:31:00,VALID,917.294,VALID,0,VALID,100,VALID,0.0169808,VALID,17.4727,VALID,186,VALID,1.02103,
2000-09-01, 02:32:00,VALID,917.275,VALID,0,VALID,100,VALID,0,VALID,17.4727,VALID,183,VALID,0.662796,
2000-09-01, 02:33:00,VALID,917.273,VALID,0,VALID,100,VALID,0,VALID,17.4533,VALID,172,VALID,0.619243,
2000-09-01, 02:34:00,VALID,917.261,VALID,0,VALID,100,VALID,0,VALID,17.4305,VALID,170,VALID,0.548884,
2000-09-01, 02:35:00,VALID,917.257,VALID,0,VALID,100,VALID,-0.0169808,VALID,17.4146,VALID,179,VALID,0.396234,
2000-09-01, 02:36:00,VALID,917.254,VALID,0,VALID,100,VALID,0,VALID,17.3985,VALID,155,VALID,0.308712,
2000-09-01, 02:37:00,VALID,917.245,VALID,0,VALID,100,VALID,0,VALID,17.35,VALID,146,VALID,0.538429,
2000-09-01, 02:38:00,VALID,917.236,VALID,0,VALID,100,VALID,0,VALID,17.3141,VALID,142,VALID,0.654194,
2000-09-01, 02:39:00,VALID,917.214,VALID,0,VALID,100,VALID,0,VALID,17.2852,VALID,151,VALID,0.734776,
2000-09-01, 02:40:00,VALID,917.182,VALID,0,VALID,100,VALID,0.0169808,VALID,17.2822,VALID,165,VALID,0.853516,
2000-09-01, 02:41:00,VALID,917.152,VALID,0,VALID,100,VALID,0.0339617,VALID,17.2659,VALID,159,VALID,0.528348,
2000-09-01, 02:42:00,VALID,917.123,VALID,0,VALID,100,VALID,0.0169808,VALID,17.24,VALID,155,VALID,0.405617,
2000-09-01, 02:43:00,VALID,917.114,VALID,0,VALID,100,VALID,0.0339617,VALID,17.2176,VALID,167,VALID,0.337316,
2000-09-01, 02:44:00,VALID,917.091,VALID,0,VALID,100,VALID,0.0169808,VALID,17.2176,VALID,191,VALID,0.536161,
2000-09-01, 02:45:00,VALID,917.08,VALID,0,VALID,100,VALID,0,VALID,17.2239,VALID,192,VALID,0.701723,
2000-09-01, 02:46:00,VALID,917.077,VALID,0,VALID,100,VALID,0,VALID,17.2271,VALID,195,VALID,1.01415,
2000-09-01, 02:47:00,VALID,917.047,VALID,0,VALID,100,VALID,0.0339617,VALID,17.2306,VALID,189,VALID,1.06456,
2000-09-01, 02:48:00,VALID,917.018,VALID,0,VALID,100,VALID,0,VALID,17.208,VALID,186,VALID,1.13839,
2000-09-01, 02:49:00,VALID,916.983,VALID,0,VALID,100,VALID,0.0169808,VALID,17.2015,VALID,187,VALID,1.10437,
2000-09-01, 02:50:00,VALID,916.952,VALID,0,VALID,100,VALID,-0.0169808,VALID,17.1985,VALID,186,VALID,1.11861,
2000-09-01, 02:51:00,VALID,916.913,VALID,0,VALID,100,VALID,-0.0169808,VALID,17.2088,VALID,183,VALID,1.12326,
2000-09-01, 02:52:00,VALID,916.905,VALID,0,VALID,100,VALID,0,VALID,17.1955,VALID,198,VALID,0.941201,
2000-09-01, 02:53:00,VALID,916.911,VALID,0,VALID,100,VALID,0,VALID,17.166,VALID,198,VALID,0.769631,
2000-09-01, 02:54:00,VALID,916.903,VALID,0,VALID,100,VALID,-0.0169808,VALID,17.1528,VALID,187,VALID,0.929297,
2000-09-01, 02:55:00,VALID,916.92,VALID,0,VALID,100,VALID,-0.0169808,VALID,17.1436,VALID,188,VALID,0.805804,
2000-09-01, 02:56:00,VALID,916.924,VALID,0,VALID,100,VALID,0,VALID,17.1206,VALID,192,VALID,1.11993,
2000-09-01, 02:57:00,VALID,916.921,VALID,0,VALID,100,VALID,0,VALID,17.1535,VALID,193,VALID,0.784237,
2000-09-01, 02:58:00,VALID,916.914,VALID,0,VALID,100,VALID,0,VALID,17.1436,VALID,181,VALID,0.804464,
2000-09-01, 02:59:00,VALID,916.905,VALID,0,VALID,100,VALID,0,VALID,17.1309,VALID,171,VALID,0.865585,
2000-09-01, 03:00:00,VALID,916.892,VALID,0,VALID,100,VALID,0,VALID,17.1051,VALID,167,VALID,1.00106,
2000-09-01, 03:01:00,VALID,916.868,VALID,0,VALID,100,VALID,0,VALID,17.0887,VALID,174,VALID,0.877878,
2000-09-01, 03:02:00,VALID,916.866,VALID,0,VALID,100,VALID,-0.0339617,VALID,17.0601,VALID,167,VALID,0.777232,
2000-09-01, 03:03:00,VALID,916.862,VALID,0,VALID,100,VALID,-0.0169808,VALID,17.0211,VALID,166,VALID,0.663261,
2000-09-01, 03:04:00,VALID,916.859,VALID,0,VALID,100,VALID,0,VALID,17.0017,VALID,165,VALID,0.696496,
2000-09-01, 03:05:00,VALID,916.872,VALID,0,VALID,100,VALID,-0.0169808,VALID,16.9985,VALID,165,VALID,0.512804,
2000-09-01, 03:06:00,VALID,916.881,VALID,0,VALID,100,VALID,0,VALID,17.0022,VALID,177,VALID,0.430099,
2000-09-01, 03:07:00,VALID,916.899,VALID,0,VALID,100,VALID,-0.0169808,VALID,16.9695,VALID,176,VALID,0.152845,
2000-09-01, 03:08:00,VALID,916.895,VALID,0,VALID,100,VALID,0,VALID,16.9178,VALID,176,VALID,0,
2000-09-01, 03:09:00,VALID,916.901,VALID,0,VALID,99.9977,VALID,0,VALID,16.8175,VALID,165,VALID,0.0897321,
2000-09-01, 03:10:00,VALID,916.895,VALID,0,VALID,99.9761,VALID,0,VALID,16.7082,VALID,117,VALID,0.520904,
2000-09-01, 03:11:00,VALID,916.882,VALID,0,VALID,99.9519,VALID,-0.0169808,VALID,16.6505,VALID,120,VALID,0.181526,
2000-09-01, 03:12:00,VALID,916.864,VALID,0,VALID,99.9494,VALID,0.0169808,VALID,16.6016,VALID,123,VALID,0,
2000-09-01, 03:13:00,VALID,916.853,VALID,0,VALID,99.9405,VALID,-0.0169808,VALID,16.5435,VALID,123,VALID,0,
2000-09-01, 03:14:00,VALID,916.85,VALID,0,VALID,99.9621,VALID,0,VALID,16.5173,VALID,123,VALID,0,
2000-09-01, 03:15:00,VALID,916.848,VALID,0,VALID,99.9977,VALID,-0.0169808,VALID,16.5078,VALID,159,VALID,0,
2000-09-01, 03:16:00,VALID,916.864,VALID,0,VALID,100,VALID,0,VALID,16.553,VALID,180,VALID,0.3875,
2000-09-01, 03:17:00,VALID,916.877,VALID,0,VALID,100,VALID,0,VALID,16.6305,VALID,184,VALID,0.807692,
2000-09-01, 03:18:00,VALID,916.9,VALID,0,VALID,100,VALID,0,VALID,16.6664,VALID,174,VALID,0.774621,
2000-09-01, 03:19:00,VALID,916.915,VALID,0,VALID,100,VALID,0,VALID,16.6662,VALID,172,VALID,0.927083,
2000-09-01, 03:20:00,VALID,916.931,VALID,0,VALID,100,VALID,0,VALID,16.6955,VALID,166,VALID,0.824424,
2000-09-01, 03:21:00,VALID,916.94,VALID,0,VALID,99.9964,VALID,0,VALID,16.5696,VALID,118,VALID,0.534455,
2000-09-01, 03:22:00,VALID,916.933,VALID,0,VALID,99.9036,VALID,0,VALID,16.3466,VALID,111,VALID,0.508789,
2000-09-01, 03:23:00,VALID,916.936,VALID,0,VALID,99.896,VALID,0,VALID,16.2532,VALID,126,VALID,0.489286,
2000-09-01, 03:24:00,VALID,916.932,VALID,0,VALID,99.9629,VALID,0,VALID,16.2276,VALID,164,VALID,0.464316,
2000-09-01, 03:25:00,VALID,916.903,VALID,0,VALID,100,VALID,0,VALID,16.2784,VALID,184,VALID,0.778493,
2000-09-01, 03:26:00,VALID,916.895,VALID,0,VALID,100,VALID,-0.0169808,VALID,16.4051,VALID,195,VALID,0.99308,
2000-09-01, 03:27:00,VALID,916.891,VALID,0,VALID,100,VALID,0,VALID,16.5183,VALID,192,VALID,1.10096,
2000-09-01, 03:28:00,VALID,916.892,VALID,0,VALID,100,VALID,0,VALID,16.5988,VALID,181,VALID,1.10853,
2000-09-01, 03:29:00,VALID,916.891,VALID,0,VALID,100,VALID,-0.0169808,VALID,16.6539,VALID,182,VALID,0.971217,
2000-09-01, 03:30:00,VALID,916.918,VALID,0,VALID,100,VALID,-0.0849042,VALID,16.6991,VALID,182,VALID,1.01161,
2000-09-01, 03:31:00,VALID,916.917,VALID,0,VALID,100,VALID,0.0169808,VALID,16.715,VALID,185,VALID,1.07893,
2000-09-01, 03:32:00,VALID,916.937,VALID,0,VALID,100,VALID,-0.0169808,VALID,16.712,VALID,191,VALID,1.30729,
2000-09-01, 03:33:00,VALID,916.943,VALID,0,VALID,100,VALID,0.0169808,VALID,16.709,VALID,194,VALID,1.2181,
2000-09-01, 03:34:00,VALID,916.923,VALID,0,VALID,100,VALID,0,VALID,16.6991,VALID,192,VALID,1.33758,
2000-09-01, 03:35:00,VALID,916.912,VALID,0,VALID,100,VALID,0,VALID,16.7189,VALID,194,VALID,1.28846,
2000-09-01, 03:36:00,VALID,916.896,VALID,0,VALID,100,VALID,-0.0509425,VALID,16.7254,VALID,193,VALID,1.24805,
2000-09-01, 03:37:00,VALID,916.901,VALID,0,VALID,100,VALID,-0.0339617,VALID,16.7445,VALID,192,VALID,1.37277,